Regional Weather Roundup
Issued by NWS

Home | Current Version | Previous Version | Text Only | Print | Product List | Glossary On
Versions: 1 2 3 4 5 6 7 8 9 10 11 12 13 14 15 16 17 18 19 20 21 22 23 24 25 26 27 28 29 30 31 32 33 34 35 36 37 38 39 40 41 42 43 44 45 46 47 48 49 50
000
ASUS43 KTOP 171308
RWRKS

WEATHER ROUNDUP FOR KANSAS
NATIONAL WEATHER SERVICE GOODLAND KS
700 AM CST SUN DEC 17 2017

NOTE:  "FAIR" INDICATES FEW OR NO CLOUDS BELOW 12,000 FEET WITH NO
SIGNIFICANT WEATHER AND/OR OBSTRUCTIONS TO VISIBILITY.

KSZ001>006-013>018-027>032-041>047-171400-
NORTHWEST KANSAS

CITY           SKY/WX    TMP DP  RH WIND       PRES   REMARKS
GOODLAND       CLOUDY    33  31  92 N9        29.99R
HAYS           CLOUDY    35  29  78 N10       29.96R WCI  27
HILL CITY      CLOUDY    32  29  88 N15       30.00R WCI  22
RUSSELL        CLOUDY    32  27  81 W7        29.96R
$$

KSZ061>065-074>080-084>089-171400-
SOUTHWEST KANSAS

CITY           SKY/WX    TMP DP  RH WIND       PRES   REMARKS
DODGE CITY     CLOUDY    30  24  78 NW8       29.96R
ELKHART        CLOUDY    33  31  89 N20       29.97R WCI  22
GARDEN CITY    CLOUDY    30  27  88 N16       29.96R WCI  19
GREAT BEND     CLOUDY    37  33  85 S7        29.95R
LIBERAL        CLOUDY    24  22  91 NW15      29.95R WCI  11
PRATT          CLEAR     32  31  96 S8        29.95R
$$

KSZ066>073-081>083-090>101-171400-
SOUTHEAST KANSAS

CITY           SKY/WX    TMP DP  RH WIND       PRES   REMARKS
CHANUTE        CLOUDY    44  42  93 S9        30.03R
COFFEYVILLE    CLOUDY    44  43  96 S12       30.04R
HUTCHINSON     CLOUDY    41  40  96 S9        29.95S
MEDICINE LODGE   N/A     41  38  89 SW6       29.97R
NEWTON         CLOUDY    42  40  92 SW8       29.97R
PARSONS        CLOUDY    44  43  96 S9        30.04R
WICHITA INTL   PTCLDY    40  39  97 S8        29.97R
WICHITA JABRA  CLOUDY    42  41  96 S9        29.97S
WICHITA MCCONL CLOUDY    41  39  93 SW8       29.98R
WINFIELD       CLOUDY    44  43  96 S9        30.02R
$$

KSZ007>012-019>026-033>040-048>060-102>105-171400-
NORTHEAST KANSAS

CITY           SKY/WX    TMP DP  RH WIND       PRES   REMARKS
CONCORDIA      CLOUDY    38  29  70 E3        29.93R
EMPORIA          N/A     42  41  96 S9        29.99R
LAWRENCE       LGT RAIN  43  43 100 E5        29.99S FOG
MANHATTAN      CLOUDY    44  41  89 CALM      29.96S
MARYSVILLE     CLOUDY    37  36  93 SE3       29.95S
OLATHE IND     LGT RAIN  42  42 100 SE5       30.00S FOG
OLATHE EXE     RAIN      41  41 100 S3        30.00R FOG
SALINA         CLOUDY    44  41  89 S12       29.98R
TOPEKA BILLARD CLOUDY    43  43 100 SE3       29.98S
TOPEKA FORBES  CLOUDY    44  43  96 S6        29.98R FOG
$$




USA.gov is the U.S. government's official web portal to all federal, state and local government web resources and services.